GAOFEN-12 02

Last updated on Mon Sep 07 2026 00:02:46 GMT+0000 (Coordinated Universal Time)

1 48079U 21026A 26249.60895105 .00000194 00000+0 32332-4 0 9996 2 48079 97.9986 247.4827 0004365 349.1858 10.9259 14.80349500293800
UTC large
Height (km)
Speed (km/s)
/
Latitude / Longitude
Inclination (degrees)
Orbital Period (minutes)
Azimuth
Elevation
Range (km)
Doppler Factor

Next 0 passes for location: London (51.5072 / 0.1276)

No passes found over London.
GAOFEN-12 02